Regional Weather Roundup
Issued by NWS Northern Indiana

Home | Current Version | Previous Version | Text Only | Print | Product List | Glossary On
Versions: 1 2 3 4 5 6 7 8 9 10 11 12 13 14 15 16 17 18 19 20 21 22 23 24 25 26 27 28 29 30 31 32 33 34 35 36 37 38 39 40 41 42 43 44 45 46 47 48 49 50
000
ASUS43 KIWX 280410
RWRIWX

KIWX WEATHER ROUNDUP
NATIONAL WEATHER SERVICE NORTHERN INDIANA
1200 AM EDT THU MAY 28 2015

NOTE: "FAIR" INDICATES FEW OR NO CLOUDS BELOW 12,000 FEET WITH NO
SIGNIFICANT WEATHER AND/OR OBSTRUCTIONS TO VISIBILITY.

* THESE STATIONS ARE NOT UNDER NWS QUALITY CONTROL. THEY ALSO MAY NOT
  REPORT WEATHER SUCH AS PRECIPITATION OR FOG.

INZ001>027-280500-
NORTHERN INDIANA

CITY           SKY/WX    TMP DP  RH WIND       PRES   REMARKS
GARY*          CLEAR     57  56  97 CALM      30.14S
VALPARAISO     CLEAR     58  55  90 CALM      30.14R
MICHIGAN CITY* CLEAR     54  54 100 CALM      30.14R
LAPORTE*       CLEAR     58  55  88 CALM      30.14S
KNOX*          CLEAR     57  57 100 N5        30.13S
SOUTH BEND     CLEAR     58  55  90 SW3       30.15R
GOSHEN         CLEAR     57  54  89 NW6       30.13R
MONTICELLO*    CLEAR     61  58  87 CALM      30.12S
LOGANSPORT*    CLEAR     61  54  77 N6        30.14R
ROCHESTER*     CLEAR     61  57  88 NW3       30.13S
WARSAW*        CLEAR     59  55  88 NW5       30.12S
ANGOLA*        CLEAR     63  57  82 NW5       30.11R
FORT WAYNE     PTCLDY    64  57  78 NW3       30.12R
HUNTINGTON*    CLEAR     63  57  80 CALM      30.12R
MARION*        MOCLDY    65  58  76 CALM      30.14R

$$
INZ028>050-280500-
CENTRAL INDIANA

CITY           SKY/WX    TMP DP  RH WIND       PRES   REMARKS
LAFAYETTE      CLEAR     65  57  75 N6        30.12R
KOKOMO*        CLEAR     63  55  77 SE5       30.13R
MUNCIE*        MOCLDY    68  62  81 NW9       30.12R
INDIANAPOLIS   CLOUDY    69  63  81 S3        30.11R

$$
MIZ043>046-050>051-056>058-064>065-071>073-077>080-280500-
SOUTHWEST LOWER MICHIGAN

CITY           SKY/WX    TMP DP  RH WIND       PRES   REMARKS
BATTLE CREEK   CLEAR     59  55  87 NW5       30.12R
BENTON HARBOR  PTCLDY    52  51  97 CALM      30.12S
COLDWATER*     CLEAR     58  55  88 W5        30.12R
HILLSDALE*     CLEAR     62  59  90 NW5       30.11S
HOLLAND        CLEAR     55  53  93 S3        30.12S
GRAND RAPIDS   CLEAR     58  55  90 SW5       30.10S
KALAMAZOO      CLEAR     57  53  86 NW3       30.12S
STURGIS*       CLEAR     57  55  94 NW3       30.12R
THREE RIVERS*  FAIR      58  54  89 CALM      30.13R

$$
OHZ001>008-015>018-024>025-280500-
NORTHWEST OHIO

CITY           SKY/WX    TMP DP  RH WIND       PRES   REMARKS
WAUSEON*       FAIR      64  61  88 NW6       30.10R
DEFIANCE       CLEAR     65  58  78 CALM      30.11R
FINDLAY        MOCLDY    66  63  90 W5        30.09R
TOLEDO EXPRESS PTCLDY    63  60  90 NW6       30.09R
TOLEDO METCALF MOCLDY    67  63  87 SW5       30.10R
LIMA           MOCLDY    66  62  87 W5        30.11R

$$
AND FOR LAKE MICHIGAN COASTAL AND OPEN LAKE BUOY OBSERVATIONS

STATION/POSITION TEMP    WIND        PRES    VSBY  WAVE
                 AIR SEA DIR/SP/G                  HT/PER
                 (F)     (DEG/KT/KT) (MB)    (MI)  (FT/S)
CALUMET HARBOR    60     100/  3/  4   N/A
MICHIGAN CITY     60     120/  2/  3   N/A
BURNS HARBOR      62      90/  4/  5 1021.0R
SAINT JOSEPH      55     180/  2/  3 1020.7F
SOUTH LAKE BUOY   45 38  180/  6/  8 1020.2R         0
4 MI NW BRIDGMAN  55 56  210/  2/  4   N/A           1
MICHIGAN CITY     56 53  160/  2/  2   N/A           1

$$
&&


USA.gov is the U.S. government's official web portal to all federal, state and local government web resources and services.